This demonstration page uses our WeatherBlox Daily Observations layout. Learn more.

Left ArrowRight Arrow

Hourly Observations for March 14, 2018

Temp ( °F °C ) Dew Point ( °F °C ) Humidity (%) Winds ( mph kmh ) Pressure ( in mb ) Visibility ( mi km ) Precip ( " mm )
12:54 am 00:54 Clear 21 -6.1 14 -10 74 74 Calm 30.34 1027 10 16 0.00 0.00
1:54 am 01:54 Clear 20 -6.7 13 -10.6 74 74 Calm 30.33 1027 10 16 0.00 0.00
2:54 am 02:54 Clear 22 -5.6 13 -10.6 68 68 Calm 30.30 1026 10 16 0.00 0.00
3:54 am 03:54 Clear 26 -3.3 14 -10 60 60 SSW 3 6 30.27 1025 10 16 0.00 0.00
4:54 am 04:54 Clear 26 -3.3 13 -10.6 57 57 S 3 6 30.25 1024 10 16 0.00 0.00
5:54 am 05:54 Clear 26 -3.3 14 -10 60 60 S 6 9 30.23 1024 10 16 0.00 0.00
6:54 am 06:54 Clear 28 -2.2 14 -10 56 56 SSE 5 7 30.22 1023 10 16 0.00 0.00
7:54 am 07:54 Sunny 28 -2.2 14 -10 56 56 SSE 6 9 30.22 1023 10 16 0.00 0.00
8:54 am 08:54 Sunny 33 0.6 20 -6.7 58 58 S 5 7 30.21 1023 10 16 0.00 0.00
9:54 am 09:54 Sunny 43 6.1 12 -11.1 28 28 WSW 10 17 30.19 1022 10 16 0.00 0.00
10:54 am 10:54 Sunny 51 10.6 14 -10 23 23 WSW 18 30 30.16 1021 10 16 0.00 0.00
11:54 am 11:54 Sunny 56 13.3 16 -8.9 21 21 WSW 14 22 30.12 1020 10 16 0.00 0.00
12:54 pm 12:54 Sunny 61 16.1 19 -7.2 20 20 WSW 16 26 30.08 1019 10 16 0.00 0.00
1:54 pm 13:54 Sunny 65 18.3 22 -5.6 19 19 SW 22 35 30.04 1017 10 16 0.00 0.00
2:54 pm 14:54 Sunny 67 19.4 22 -5.6 18 18 SW 15 24 29.99 1016 10 16 0.00 0.00
3:54 pm 15:54 Sunny 68 20 23 -5 18 18 WSW 16 26 29.95 1014 10 16 0.00 0.00
4:54 pm 16:54 Sunny 69 20.6 23 -5 17 17 SW 15 24 29.92 1013 10 16 0.00 0.00
5:54 pm 17:54 Sunny 69 20.6 23 -5 17 17 SSW 16 26 29.90 1012 10 16 0.00 0.00
6:54 pm 18:54 Sunny 66 18.9 24 -4.4 20 20 SSW 9 15 29.88 1012 10 16 0.00 0.00
7:54 pm 19:54 Clear 54 12.2 23 -5 30 30 SSW 6 9 29.88 1012 10 16 0.00 0.00
8:54 pm 20:54 Clear 48 8.9 24 -4.4 39 39 Calm 29.89 1012 10 16 0.00 0.00
9:54 pm 21:54 Clear 47 8.3 24 -4.4 41 41 Calm 29.87 1012 10 16 0.00 0.00
10:54 pm 22:54 Clear 44 6.7 25 -3.9 47 47 ESE 3 6 29.87 1012 10 16 0.00 0.00
11:54 pm 23:54 Clear 35 1.7 24 -4.4 64 64 NNW 3 6 29.87 1012 10 16 0.00 0.00

Powered by AerisWeather